Radiation Dose at Monitoring Post of Fukushima Daini Nuclear Power Station
Date,Time,MP-1(microSv/h),MP-2(microSv/h),MP-3(microSv/h),MP-4(microSv/h),MP-5(microSv/h),MP-6(microSv/h),MP-7(microSv/h),Wind Direction,Wind Velocity(m/s),Rain
2023/10/12,00:00,0.146,0.131,0.211,0.200,0.207,0.117,0.075,northwest,6.1,No
2023/10/12,00:10,0.145,0.130,0.211,0.199,0.208,0.118,0.076,northwest,6.0,No
2023/10/12,00:20,0.145,0.131,0.210,0.201,0.207,0.117,0.075,northwest,6.2,No
2023/10/12,00:30,0.144,0.130,0.210,0.200,0.207,0.117,0.075,northwest,6.6,No
2023/10/12,00:40,0.144,0.130,0.211,0.199,0.209,0.118,0.076,northwest,6.3,No
2023/10/12,00:50,0.145,0.130,0.210,0.200,0.206,0.117,0.074,northwest,6.4,No
2023/10/12,01:00,0.144,0.130,0.210,0.200,0.209,0.117,0.075,north-northwest,6.2,No
2023/10/12,01:10,0.145,0.130,0.211,0.200,0.206,0.118,0.075,northwest,6.0,No
2023/10/12,01:20,0.145,0.130,0.210,0.199,0.206,0.117,0.075,north-northwest,6.3,No
2023/10/12,01:30,0.145,0.130,0.210,0.200,0.208,0.118,0.075,north-northwest,6.0,No
2023/10/12,01:40,0.145,0.130,0.212,0.200,0.206,0.117,0.074,north-northwest,6.2,No
2023/10/12,01:50,0.144,0.131,0.211,0.200,0.208,0.118,0.075,northwest,6.5,No
2023/10/12,02:00,0.145,0.130,0.210,0.200,0.207,0.117,0.074,northwest,6.0,No
2023/10/12,02:10,0.145,0.131,0.212,0.200,0.207,0.117,0.074,north-northwest,6.1,No
2023/10/12,02:20,0.145,0.131,0.211,0.200,0.209,0.118,0.075,north-northwest,6.3,No
2023/10/12,02:30,0.146,0.132,0.211,0.200,0.206,0.117,0.074,northwest,6.1,No
2023/10/12,02:40,0.146,0.131,0.211,0.199,0.208,0.117,0.075,northwest,6.0,No
2023/10/12,02:50,0.145,0.131,0.210,0.200,0.207,0.117,0.075,northwest,5.9,No
2023/10/12,03:00,0.146,0.132,0.211,0.200,0.206,0.118,0.075,northwest,6.1,No
2023/10/12,03:10,0.144,0.131,0.212,0.199,0.207,0.116,0.075,north-northwest,6.1,No
2023/10/12,03:20,0.145,0.130,0.211,0.199,0.206,0.117,0.075,northwest,6.0,No
2023/10/12,03:30,0.145,0.131,0.209,0.199,0.207,0.117,0.074,north-northwest,6.3,No
2023/10/12,03:40,0.145,0.129,0.210,0.199,0.206,0.117,0.075,northwest,5.7,No
2023/10/12,03:50,0.145,0.132,0.211,0.200,0.207,0.117,0.075,northwest,6.1,No
2023/10/12,04:00,0.145,0.130,0.209,0.199,0.207,0.117,0.075,northwest,5.7,No
2023/10/12,04:10,0.145,0.129,0.210,0.199,0.205,0.118,0.075,northwest,5.5,No
2023/10/12,04:20,0.145,0.131,0.210,0.200,0.208,0.118,0.074,northwest,5.1,No
2023/10/12,04:30,0.144,0.130,0.211,0.199,0.206,0.117,0.075,northwest,5.2,No
2023/10/12,04:40,0.145,0.131,0.210,0.199,0.207,0.117,0.075,northwest,5.1,No
2023/10/12,04:50,0.145,0.130,0.210,0.199,0.208,0.117,0.075,northwest,5.0,No
2023/10/12,05:00,0.145,0.130,0.211,0.199,0.207,0.117,0.075,north-northwest,5.3,No
2023/10/12,05:10,0.145,0.130,0.210,0.199,0.206,0.116,0.075,north-northwest,5.3,No
2023/10/12,05:20,0.144,0.130,0.210,0.200,0.208,0.118,0.075,northwest,5.3,No
2023/10/12,05:30,0.144,0.130,0.211,0.198,0.207,0.117,0.075,northwest,5.2,No
2023/10/12,05:40,0.146,0.131,0.211,0.198,0.206,0.117,0.075,northwest,4.9,No
2023/10/12,05:50,0.144,0.130,0.211,0.200,0.206,0.117,0.075,northwest,4.2,No
2023/10/12,06:00,0.146,0.132,0.210,0.199,0.207,0.117,0.075,north-northwest,4.6,No
2023/10/12,06:10,0.145,0.131,0.211,0.199,0.207,0.117,0.074,north-northwest,4.9,No
2023/10/12,06:20,0.144,0.131,0.211,0.200,0.206,0.116,0.075,northwest,5.5,No
2023/10/12,06:30,0.145,0.131,0.210,0.199,0.207,0.117,0.075,northwest,5.9,No
2023/10/12,06:40,0.145,0.130,0.210,0.199,0.207,0.116,0.075,northwest,5.9,No
2023/10/12,06:50,0.144,0.131,0.210,0.200,0.206,0.117,0.075,northwest,5.9,No
2023/10/12,07:00,0.144,0.130,0.210,0.200,0.208,0.117,0.075,northwest,5.3,No
2023/10/12,07:10,0.145,0.130,0.210,0.199,0.206,0.118,0.075,northwest,4.8,No
2023/10/12,07:20,0.145,0.130,0.210,0.200,0.206,0.117,0.074,northwest,4.4,No
2023/10/12,07:30,0.144,0.130,0.209,0.198,0.206,0.118,0.075,northwest,4.3,No
2023/10/12,07:40,0.145,0.131,0.210,0.199,0.207,0.117,0.075,northwest,4.6,No
2023/10/12,07:50,0.145,0.130,0.210,0.198,0.206,0.117,0.075,north-northwest,4.2,No
2023/10/12,08:00,0.143,0.131,0.210,0.200,0.205,0.116,0.075,north-northwest,4.0,No
2023/10/12,08:10,0.144,0.131,0.210,0.197,0.207,0.117,0.074,northwest,3.8,No
2023/10/12,08:20,0.145,0.130,0.208,0.199,0.205,0.117,0.074,north-northwest,2.8,No
2023/10/12,08:30,0.144,0.131,0.210,0.198,0.206,0.117,0.074,north-northwest,2.0,No
2023/10/12,08:40,0.145,0.130,0.209,0.199,0.206,0.117,0.075,north,1.4,No
2023/10/12,08:50,0.144,0.131,0.211,0.198,0.206,0.116,0.075,northwest,1.6,No
2023/10/12,09:00,0.145,0.130,0.210,0.198,0.205,0.117,0.074,north,1.3,No
2023/10/12,09:10,0.146,0.130,0.209,0.198,0.204,0.118,0.075,north-northeast,1.6,No
2023/10/12,09:20,0.143,0.130,0.210,0.197,0.208,0.117,0.074,north-northeast,2.3,No
2023/10/12,09:30,0.145,0.131,0.210,0.200,0.206,0.117,0.075,north-northeast,2.5,No
2023/10/12,09:40,0.145,0.131,0.211,0.199,0.205,0.117,0.075,northeast,3.1,No
2023/10/12,09:50,0.143,0.130,0.209,0.198,0.206,0.116,0.074,northeast,3.5,No
2023/10/12,10:00,0.144,0.131,0.210,0.197,0.207,0.115,0.074,northeast,2.7,No
2023/10/12,10:10,0.145,0.130,0.210,0.199,0.206,0.117,0.075,northeast,3.2,No
2023/10/12,10:20,0.145,0.131,0.209,0.200,0.207,0.117,0.075,northeast,3.2,No
2023/10/12,10:30,0.143,0.131,0.207,0.198,0.207,0.117,0.074,northeast,3.1,No
2023/10/12,10:40,0.144,0.131,0.210,0.197,0.207,0.117,0.074,northeast,3.8,No
2023/10/12,10:50,0.145,0.131,0.210,0.198,0.203,0.117,0.075,northeast,2.4,No
2023/10/12,11:00,0.144,0.131,0.208,0.200,0.207,0.118,0.075,northeast,3.5,No
2023/10/12,11:10,0.143,0.130,0.208,0.201,0.210,0.117,0.074,east-northeast,3.3,No
2023/10/12,11:20,0.143,0.129,0.211,0.198,0.207,0.117,0.075,northeast,2.3,No
2023/10/12,11:30,0.145,0.132,0.211,0.197,0.204,0.117,0.075,northeast,1.9,No
2023/10/12,11:40,0.145,0.130,0.209,0.197,0.208,0.117,0.075,northeast,2.4,No
2023/10/12,11:50,0.145,0.129,0.208,0.201,-,0.118,0.074,northeast,2.6,No
2023/10/12,12:00,0.144,0.131,0.209,0.201,-,0.118,0.074,east-northeast,3.2,No
2023/10/12,12:10,0.142,0.131,0.211,0.199,-,0.117,0.075,east-northeast,2.7,No
2023/10/12,12:20,0.145,0.130,0.210,0.198,-,0.117,0.075,east-northeast,2.9,No
2023/10/12,12:30,0.145,0.130,0.207,0.198,-,0.117,0.074,northeast,1.9,No
2023/10/12,12:40,0.144,0.130,0.208,0.201,-,0.117,0.074,northeast,1.5,No
2023/10/12,12:50,0.144,0.132,0.209,0.202,0.206,0.117,0.076,east,1.5,No
2023/10/12,13:00,0.143,0.132,0.213,0.199,0.206,0.118,0.074,northeast,2.0,No
2023/10/12,13:10,0.143,0.130,0.210,0.198,0.205,0.117,0.074,northeast,2.5,No
2023/10/12,13:20,0.143,0.131,0.210,0.198,0.205,0.117,0.074,northeast,2.6,No
2023/10/12,13:30,0.144,0.131,0.208,0.198,0.207,0.118,0.074,northeast,2.6,No
2023/10/12,13:40,0.146,0.132,0.209,0.200,0.209,0.118,0.075,northeast,2.4,No
2023/10/12,13:50,0.145,0.131,0.213,0.201,0.206,0.117,0.075,northeast,2.6,No
2023/10/12,14:00,0.145,0.131,0.212,0.199,0.206,0.117,0.074,northeast,2.6,No
2023/10/12,14:10,0.144,0.131,0.211,0.198,0.205,0.117,0.074,north-northeast,2.3,No
2023/10/12,14:20,0.145,0.132,0.210,0.198,0.207,0.117,0.075,northeast,1.7,No
2023/10/12,14:30,0.146,0.132,0.213,0.202,0.208,0.118,0.075,northeast,2.5,No
2023/10/12,14:40,0.145,0.131,0.211,0.201,0.206,0.117,0.075,northeast,2.4,No
2023/10/12,14:50,0.143,0.131,0.213,0.201,0.209,0.117,0.074,east-northeast,1.8,No
2023/10/12,15:00,0.145,0.131,0.211,0.202,0.209,0.118,0.074,northeast,1.6,No
2023/10/12,15:10,0.146,0.131,0.213,0.200,0.207,0.116,0.074,northeast,1.7,No
2023/10/12,15:20,0.145,0.132,0.211,0.202,0.209,0.117,-,northeast,1.5,No
2023/10/12,15:30,0.147,0.131,0.213,0.200,0.207,0.117,-,north-northeast,1.1,No
2023/10/12,15:40,0.146,0.133,0.211,0.203,0.210,0.118,0.075,north-northeast,0.8,No
2023/10/12,15:50,0.145,0.131,0.212,0.200,0.209,0.117,0.075,east,1.6,No
2023/10/12,16:00,0.146,0.132,0.212,0.202,0.207,0.118,0.075,-,CALM,No
2023/10/12,16:10,0.145,0.131,0.213,0.199,0.208,0.118,0.075,east-southeast,1.3,No
2023/10/12,16:20,0.147,0.132,0.210,0.202,0.207,0.117,0.075,north-northeast,1.2,No
2023/10/12,16:30,0.145,0.131,0.211,0.200,0.210,0.118,0.075,north-northeast,0.8,No
2023/10/12,16:40,0.145,0.131,0.209,0.202,0.206,0.117,0.075,-,CALM,No
2023/10/12,16:50,0.146,0.131,0.211,0.201,0.209,0.117,0.075,northwest,0.7,No
2023/10/12,17:00,0.145,0.132,-,0.202,0.208,0.117,0.075,-,CALM,No
2023/10/12,17:10,0.146,0.132,-,0.201,0.209,0.119,0.075,-,CALM,No
2023/10/12,17:20,0.146,0.131,0.212,0.201,0.208,0.117,0.075,-,CALM,No
2023/10/12,17:30,0.147,0.132,0.212,0.202,0.209,0.118,0.075,-,CALM,No
2023/10/12,17:40,0.144,0.132,0.211,0.201,0.207,0.118,0.074,-,CALM,No
2023/10/12,17:50,0.146,0.132,0.212,0.202,0.208,0.118,0.075,-,CALM,No
2023/10/12,18:00,0.146,0.132,0.211,0.202,0.208,0.118,0.075,-,CALM,No
2023/10/12,18:10,0.146,0.131,0.213,0.202,0.209,0.118,0.075,-,CALM,No
2023/10/12,18:20,0.146,0.132,0.211,0.202,0.209,0.119,0.075,-,CALM,No
2023/10/12,18:30,0.145,0.132,0.213,0.202,0.209,0.118,0.075,-,CALM,No
2023/10/12,18:40,0.147,0.132,0.213,0.203,0.208,0.118,0.074,-,CALM,No
2023/10/12,18:50,0.146,0.132,0.212,0.201,0.208,0.119,0.075,-,CALM,No
2023/10/12,19:00,0.146,0.132,0.212,0.202,0.209,0.119,0.075,south-southwest,0.6,No
2023/10/12,19:10,0.146,0.132,0.213,0.201,0.207,0.118,0.076,southwest,1.2,No
2023/10/12,19:20,0.146,0.132,0.211,0.201,0.209,0.117,0.076,southwest,1.9,No
2023/10/12,19:30,0.146,0.131,0.211,0.202,0.208,0.118,0.076,southwest,2.0,No
2023/10/12,19:40,0.146,0.132,0.212,0.201,0.208,0.118,0.074,southwest,2.4,No
2023/10/12,19:50,0.145,0.133,0.211,0.202,0.207,0.118,0.074,west-southwest,2.5,No
2023/10/12,20:00,0.146,0.131,0.212,0.202,0.208,0.118,0.075,west-southwest,3.2,No
2023/10/12,20:10,0.145,0.131,0.213,0.201,0.209,0.119,0.075,southwest,2.2,No
2023/10/12,20:20,0.146,0.132,0.213,0.202,0.208,0.118,0.076,west-southwest,2.4,No
2023/10/12,20:30,0.146,0.132,0.211,0.202,0.209,0.118,0.076,west-southwest,2.8,No
2023/10/12,20:40,0.146,0.133,0.212,0.201,0.207,0.118,0.075,west,1.9,No
2023/10/12,20:50,0.147,0.132,0.213,0.202,0.208,0.119,0.075,west,1.4,No
2023/10/12,21:00,0.146,0.132,0.213,0.201,0.209,0.118,0.076,west-northwest,1.3,No
2023/10/12,21:10,0.147,0.132,0.213,0.201,0.207,0.118,0.075,northwest,1.3,No
2023/10/12,21:20,0.145,0.132,0.213,0.202,0.209,0.119,0.076,northwest,1.4,No
2023/10/12,21:30,0.146,0.132,0.213,0.202,0.208,0.118,0.076,northwest,1.5,No
2023/10/12,21:40,0.145,0.133,0.213,0.203,0.208,0.119,0.075,northwest,1.4,No
2023/10/12,21:50,0.145,0.132,0.212,0.202,0.209,0.119,0.075,northwest,1.8,No
2023/10/12,22:00,0.147,0.132,0.213,0.200,0.208,0.118,0.075,west-northwest,1.9,No
2023/10/12,22:10,0.146,0.132,0.212,0.201,0.209,0.118,0.076,west,2.1,No
2023/10/12,22:20,0.146,0.131,0.213,0.202,0.207,0.117,0.075,west,1.9,No
2023/10/12,22:30,0.146,0.133,0.212,0.201,0.210,0.118,0.076,west-northwest,1.6,No
2023/10/12,22:40,0.145,0.132,0.213,0.201,0.207,0.119,0.076,northwest,2.3,No
2023/10/12,22:50,0.146,0.132,0.213,0.202,0.209,0.119,0.076,northwest,3.3,No
2023/10/12,23:00,0.145,0.133,0.212,0.200,0.208,0.118,0.076,northwest,3.3,No
2023/10/12,23:10,0.147,0.131,0.212,0.201,0.208,0.118,0.076,northwest,3.7,No
2023/10/12,23:20,0.146,0.132,0.213,0.203,0.209,0.118,0.076,northwest,4.2,No
2023/10/12,23:30,0.145,0.131,0.212,0.201,0.207,0.119,0.076,northwest,3.3,No
2023/10/12,23:40,0.146,0.132,0.214,0.200,0.208,0.119,0.076,northwest,3.4,No
2023/10/12,23:50,0.147,0.131,0.213,0.202,0.209,0.118,0.076,northwest,2.9,No
